Humidity-temperature Sensor

Selected Measurement Type: Air Temperature

 
Air Temperature [°C]     6 entries per hour
Showing data from 8/2/2020 (00:00:00 Z) to 7/30/2020 (00:01:00 Z)
Previous Next [ Day | 3-Days | 7-Days ]
First Last
Prev [ Day | 3-Days | 7-Days ] Next
First Last

Start Time:     :
End Time:     :     
Time (in GMT) :00 :50 :40 :30 :20 :10
Previous Next [ Day | 3-Days | 7-Days ]
First Last
Prev [ Day | 3-Days | 7-Days ] Next
First Last


123 => good data
MM => data is determined as missing
-- => data not received/configured
Back to Top Back to Top
8/2/2020 00:00 to 23:10 24.51 24.54 24.53 24.70 24.54 24.53
8/1/2020 23:00 to 22:10 24.50 24.59 24.48 24.70 24.61 24.70
8/1/2020 22:00 to 21:10 24.64 24.72 24.74 24.72 24.68 24.72
8/1/2020 21:00 to 20:10 24.90 24.75 24.77 24.76 24.68 24.77
8/1/2020 20:00 to 19:10 24.47 24.67 24.83 24.70 24.69 24.73
8/1/2020 19:00 to 18:10 24.75 24.77 24.63 24.60 24.59 24.67
8/1/2020 18:00 to 17:10 24.72 24.78 24.66 24.85 24.81 24.79
8/1/2020 17:00 to 16:10 24.79 24.75 24.65 24.87 24.79 24.90
8/1/2020 16:00 to 15:10 24.96 24.84 24.61 24.67 24.61 24.60
8/1/2020 15:00 to 14:10 24.80 24.49 24.46 24.48 24.55 24.54
8/1/2020 14:00 to 13:10 24.56 24.63 24.68 24.70 24.55 24.64
8/1/2020 13:00 to 12:10 24.49 24.58 24.78 24.69 24.60 24.57
8/1/2020 12:00 to 11:10 24.59 24.49 24.44 24.10 23.81 23.79
8/1/2020 11:00 to 10:10 23.91 23.56 22.91 22.88 22.80 23.03
8/1/2020 10:00 to 9:10 23.03 22.94 23.55 23.97 24.13 24.32
8/1/2020 09:00 to 8:10 24.52 24.46 24.39 24.44 24.31 24.46
8/1/2020 08:00 to 7:10 24.52 24.68 24.73 24.71 24.72 24.59
8/1/2020 07:00 to 6:10 24.31 24.71 24.52 24.58 24.59 24.42
8/1/2020 06:00 to 5:10 24.66 24.61 24.45 24.61 24.56 24.52
8/1/2020 05:00 to 4:10 24.52 24.55 24.55 24.54 24.50 24.53
8/1/2020 04:00 to 3:10 24.54 24.44 24.49 24.47 24.39 24.48
8/1/2020 03:00 to 2:10 24.54 24.61 24.56 24.49 24.52 24.47
8/1/2020 02:00 to 1:10 24.54 24.71 24.60 24.56 24.44 24.50
8/1/2020 01:00 to 0:10 24.65 24.55 24.60 24.78 24.59 24.80
8/1/2020 00:00 to 23:10 24.70 24.69 24.83 24.62 24.67 24.80
7/31/2020 23:00 to 22:10 24.74 24.80 24.65 24.72 24.68 24.58
7/31/2020 22:00 to 21:10 24.65 24.60 24.58 24.58 24.70 24.76
7/31/2020 21:00 to 20:10 24.66 24.69 24.72 24.77 24.57 24.60
7/31/2020 20:00 to 19:10 24.63 24.76 24.74 24.64 24.69 24.65
7/31/2020 19:00 to 18:10 24.63 24.56 24.53 24.64 24.56 24.64
7/31/2020 18:00 to 17:10 24.58 24.55 24.62 24.81 24.71 24.80
7/31/2020 17:00 to 16:10 24.71 24.69 24.49 24.66 24.78 24.57
7/31/2020 16:00 to 15:10 24.86 24.59 24.64 24.60 24.47 24.70
7/31/2020 15:00 to 14:10 24.31 24.48 24.43 24.59 24.52 24.44
7/31/2020 14:00 to 13:10 24.13 23.85 23.11 22.56 24.18 24.20
7/31/2020 13:00 to 12:10 24.23 24.20 24.26 24.30 24.19 24.13
7/31/2020 12:00 to 11:10 24.12 24.12 23.97 23.98 23.74 23.68
7/31/2020 11:00 to 10:10 24.11 24.25 24.14 24.31 24.17 24.29
7/31/2020 10:00 to 9:10 24.24 24.25 24.19 24.24 24.17 24.14
7/31/2020 09:00 to 8:10 24.23 24.34 24.32 24.31 24.30 24.34
7/31/2020 08:00 to 7:10 24.30 24.34 24.27 24.30 24.27 24.40
7/31/2020 07:00 to 6:10 24.37 24.26 24.38 24.31 24.27 24.50
7/31/2020 06:00 to 5:10 24.51 24.50 24.44 24.28 24.41 24.29
7/31/2020 05:00 to 4:10 24.41 24.36 24.38 24.19 24.41 24.23
7/31/2020 04:00 to 3:10 24.34 24.25 24.13 24.09 24.17 24.21
7/31/2020 03:00 to 2:10 24.27 24.36 24.36 24.31 24.19 24.00
7/31/2020 02:00 to 1:10 24.13 24.10 24.14 24.12 24.20 24.29
7/31/2020 01:00 to 0:10 24.32 24.26 24.36 24.45 24.44 24.26
7/31/2020 00:00 to 23:10 24.38 24.55 24.60 24.53 24.61 24.49
7/30/2020 23:00 to 22:10 24.54 24.44 24.57 24.69 24.56 24.60
7/30/2020 22:00 to 21:10 24.63 24.59 24.57 24.80 24.71 24.56
7/30/2020 21:00 to 20:10 24.69 24.61 24.58 24.53 24.60 24.60
7/30/2020 20:00 to 19:10 24.61 24.68 24.64 24.66 24.65 24.65
7/30/2020 19:00 to 18:10 24.52 24.52 24.62 24.65 24.63 24.54
7/30/2020 18:00 to 17:10 24.60 24.50 24.52 24.53 24.53 24.58
7/30/2020 17:00 to 16:10 24.62 24.50 24.65 24.72 24.81 24.74
7/30/2020 16:00 to 15:10 24.70 24.66 24.56 24.84 24.72 24.68
7/30/2020 15:00 to 14:10 24.65 24.60 24.52 24.56 24.53 24.51
7/30/2020 14:00 to 13:10 24.46 24.45 24.44 24.42 24.27 24.37
7/30/2020 13:00 to 12:10 24.45 24.38 24.38 24.44 24.13 24.06
7/30/2020 12:00 to 11:10 23.95 23.77 23.81 23.67 23.50 23.31
7/30/2020 11:00 to 10:10 23.31 23.17 24.11 24.03 24.01 23.93
7/30/2020 10:00 to 9:10 23.92 24.01 23.78 23.79 23.62 24.03
7/30/2020 09:00 to 8:10 24.23 24.06 23.90 23.72 23.43 23.21
7/30/2020 08:00 to 7:10 23.13 23.46 23.16 22.75 23.31 24.32
7/30/2020 07:00 to 6:10 24.36 24.35 24.44 24.45 24.45 24.49
7/30/2020 06:00 to 5:10 24.25 24.55 24.44 24.43 24.32 24.17
7/30/2020 05:00 to 4:10 24.00 23.80 24.67 24.56 24.56 24.50
7/30/2020 04:00 to 3:10 24.41 24.56 24.39 24.46 24.36 24.52
7/30/2020 03:00 to 2:10 24.42 24.42 24.62 24.45 24.49 24.32
7/30/2020 02:00 to 1:10 24.41 24.38 24.40 24.58 25.00 24.76
7/30/2020 01:00 to 0:10 24.72 24.71 24.79 24.79 24.56 24.84